Location: Unspecified
(0.0000°N, 0.0000°E)
Time: 22:11:01
(UTC+00:00)

deb Explorer IX - Visible Passes

Search period start: 16 April 2014 00:00
Search period end: 26 April 2014 00:00
Orbit: 550 x 1234 km, 38.8° (Epoch: 16 April)

Date Brightness Start Highest point End Pass type
(mag) Time Alt. Az. Time Alt. Az. Time Alt. Az.
16 Apr ? 04:20:00 48° NNE 04:20:00 48° NNE 04:23:12 10° NE visible
17 Apr ? 04:19:33 27° N 04:19:33 27° N 04:21:58 10° NNE visible
18 Apr ? 04:19:00 17° N 04:19:00 17° N 04:20:25 10° N visible
